Location: Carnières
(50.1682°N, 3.3474°E)
Time: 13:18:14
(UTC+00:00)

MOZ.5/SAFIR/RUBIN 5/SL-8 - Pass Details

Date: 11 August 2024
Orbit: 671 x 698 km, 98.3° (Epoch: 14 September)

Event Time Altitude Azimuth Distance (km) Brightness Sun altitude
Exits shadow 02:41:27 16° 262° (W) 1,767 5.4 -14.8°
Maximum altitude 02:42:05 17° 271° (W) 1,748 5.5 -14.8°
Drops below altitude 10° 02:45:05 10° 311° (NW) 2,163 6.3 -14.4°
Sets 02:48:10 0° 332° (NNW) 3,090 7.4 -14.1°
